Hourly Weather Roundup
Issued by NWS Central Illinois

Home | Current Version | Previous Version | Text Only | Print | Product List | Glossary On
Versions: 1 2 3 4 5 6 7 8 9 10 11 12 13 14 15 16 17 18 19 20 21 22 23 24 25 26 27 28 29 30 31 32 33 34 35 36 37 38 39 40 41 42 43 44 45 46 47 48 49 50
000
NZUS43 KILX 020810
HWRILX

Area Weather Roundup
National Weather Service Lincoln IL
300 AM CDT THU JUL 02 2020

NOTE:  "FAIR" indicates few or no clouds below 12,000 feet, with
       no sigificant weather and/or obstructions to visibility.


CITY           SKY/WX    TMP DP  RH WIND       PRES   REMARKS
Bloomington    PTCLDY    73  70  90 NE5       29.98S
Champaign      CLEAR     75  69  81 NE6       29.95F
Danville       PTCLDY    73  65  76 E7        29.97F
Decatur        PTCLDY    72  72 100 CALM      29.95S
Effingham      CLEAR     71  70  98 CALM      29.96R
Flora          CLEAR     72  70  94 NW5       29.94S
Galesburg      MOCLDY    71  71  99 NE3       29.97S
Jacksonville   FOG       67  67 100 CALM      29.95S VSB 1
Lacon          PTCLDY    72  68  88 E3        29.96S
Lawrenceville  CLEAR     74  71  91 CALM      29.92S
Litchfield     FOG       66  65  97 CALM      29.96S VSB 1/4
$$


CITY           SKY/WX    TMP DP  RH WIND       PRES   REMARKS
Lincoln        MOCLDY    72  69  92 CALM      29.95S
Macomb         MOCLDY    71  71 100 CALM      29.97F
Mattoon        PTCLDY    72  70  93 CALM      29.93S
Mt Carmel AP   CLEAR     70  69  96 CALM      29.93S FOG
Olney-Noble AP PTCLDY    72  71  96 CALM      29.94R FOG
Paris AP       CLEAR     74  71  93 CALM      29.96R
Peoria         PTCLDY    73  70  90 NE5       29.96R
Pontiac        CLOUDY    73  69  87 CALM      29.98S
Rantoul        CLEAR     72  68  86 E6        29.96S
Robinson       CLEAR     69  69 100 CALM      29.94S FOG
Springfield    PTCLDY    70  68  93 CALM      29.95R
Taylorville    PTCLDY    68  68 100 CALM      29.95S FOG
$$

...REGIONAL REPORTS...


CITY           SKY/WX    TMP DP  RH WIND       PRES   REMARKS
Chicago O`Hare PTCLDY    71  65  81 N3        29.99S
Kankakee       CLEAR     68  65  89 NE3       30.00R
La Salle       PTCLDY    71  66  85 NE7       29.98S
Moline         CLOUDY    75  71  87 E5        29.96R
Mount Sterling MOCLDY    69  69 100 CALM      29.96S
Mount Vernon   CLOUDY    70  70 100 CALM      29.94S
Pittsfield     MOCLDY    69  69 100 CALM      29.97S
Quincy         MOCLDY    71  69  93 CALM      29.96S
Rockford       PTCLDY    71  61  70 NE5       30.02R
$$


CITY           SKY/WX    TMP DP  RH WIND       PRES   REMARKS
Burlington     LGT RAIN  73  72  96 N5        29.96S
Cedar Rapids   MOCLDY    73  70  90 NE6       29.98R
Des Moines     PTCLDY    71  68  90 CALM      29.97S
Kirksville     MOCLDY    71  70  96 E9        29.99R
Ottumwa        FOG       67  66  97 CALM      29.96R VSB 1/2
St Louis       MOCLDY    72  69  90 NE3       29.95S
$$


CITY           SKY/WX    TMP DP  RH WIND       PRES   REMARKS
Terre Haute    CLEAR     73  71  93 N5        29.94S
Evansville     CLOUDY    73  69  87 CALM      29.93S
Indianapolis   PTCLDY    75  63  66 E7        29.97R
Lafayette      CLEAR     71  64  78 NE5       29.97R
Madison        PTCLDY    63  61  93 NW3       30.03R
Milwaukee      PTCLDY    69  60  73 NW3       30.02R
$$






USA.gov is the U.S. government's official web portal to all federal, state and local government web resources and services.